Tracking 18951 objects as of 21-Jan-2018
HD Live streaming from Space Station
objects crossing your sky now

FENGYUN 1C DEB

Track FENGYUN 1C DEB now!
10-day predictions


NORAD ID: 33701
Int'l Code: 1999-025DGN
Perigee: 818.1 km
Apogee: 1,043.1 km
Inclination: 98.7 °
Period: 103.5 minutes
Semi major axis: 7301 km
RCS: 0.007 m2 (small)
Launch date: May 10, 1999
Source: People's Republic of China (PRC)
Launch site: Taiyaun Space Center, China (TSC)

Note: This is SATELLITE DEBRIS
aabbcc
Your satellite tracking list
Your tracking list is empty




NASA's NSSDC Master Catalog

Two Line Element Set (TLE):
1 33701U 99025DGN 18020.22664420  .00000541  00000-0  41832-3 0  9997
2 33701  98.6694 125.2473 0154079 250.1296 138.4999 13.91464955504518
Source of the keplerian elements: AFSPC